Time,TemperatureF,DewpointF,PressureIn,WindDirection,WindDirectionDegrees,WindSpeedMPH,WindSpeedGustMPH,Humidity,HourlyPrecipIn,Conditions,Clouds,dailyrainin,SoftwareType,DateUTC
2013-03-22 00:00:00,26.9,16.4,30.10,WSW,238,0.0,1.0,64,0.00,,,0.00,WeatherCatV1.10B1784,2013-03-22 04:00:00,
2013-03-22 00:05:00,26.9,15.6,30.10,SW,234,0.0,0.0,62,0.00,,,0.00,WeatherCatV1.10B1784,2013-03-22 04:05:00,
2013-03-22 00:06:00,26.9,15.6,30.10,SW,234,0.0,0.0,62,0.00,,,0.00,WeatherCatV1.10B1784,2013-03-22 04:06:00,
2013-03-22 00:10:00,26.8,15.9,30.10,SW,234,0.0,1.0,63,0.00,,,0.00,WeatherCatV1.10B1784,2013-03-22 04:10:00,
2013-03-22 00:11:00,26.7,15.8,30.10,SW,229,0.0,1.0,63,0.00,,,0.00,WeatherCatV1.10B1784,2013-03-22 04:11:00,
2013-03-22 00:16:00,26.6,15.4,30.10,WSW,243,1.0,1.0,62,0.00,,,0.00,WeatherCatV1.10B1784,2013-03-22 04:16:00,
2013-03-22 00:21:00,26.6,15.7,30.10,WSW,240,0.0,0.0,63,0.00,,,0.00,WeatherCatV1.10B1784,2013-03-22 04:21:00,
2013-03-22 00:26:00,26.3,15.8,30.10,WSW,240,0.0,0.0,64,0.00,,,0.00,WeatherCatV1.10B1784,2013-03-22 04:26:00,
2013-03-22 00:31:00,26.2,16.1,30.10,WSW,240,0.0,0.0,65,0.00,,,0.00,WeatherCatV1.10B1784,2013-03-22 04:31:00,
2013-03-22 00:36:00,26.1,16.7,30.09,WSW,240,0.0,0.0,67,0.00,,,0.00,WeatherCatV1.10B1784,2013-03-22 04:36:00,
2013-03-22 00:41:00,25.9,16.8,30.09,WSW,241,0.0,0.0,68,0.00,,,0.00,WeatherCatV1.10B1784,2013-03-22 04:41:00,
2013-03-22 00:46:00,25.8,17.4,30.09,WSW,241,0.0,1.0,70,0.00,,,0.00,WeatherCatV1.10B1784,2013-03-22 04:46:00,
2013-03-22 00:51:00,25.6,17.5,30.09,WSW,240,0.0,1.0,71,0.00,,,0.00,WeatherCatV1.10B1784,2013-03-22 04:51:00,
2013-03-22 00:56:00,25.5,18.1,30.09,WSW,240,0.0,1.0,73,0.00,,,0.00,WeatherCatV1.10B1784,2013-03-22 04:56:00,
2013-03-22 01:01:00,25.3,17.2,30.09,WSW,240,0.0,1.0,71,0.00,,,0.00,WeatherCatV1.10B1784,2013-03-22 05:01:00,
2013-03-22 01:06:00,25.4,17.0,30.09,WSW,240,0.0,1.0,70,0.00,,,0.00,WeatherCatV1.10B1784,2013-03-22 05:06:00,
2013-03-22 01:11:00,25.2,17.5,30.09,WSW,241,0.0,0.0,72,0.00,,,0.00,WeatherCatV1.10B1784,2013-03-22 05:11:00,
2013-03-22 01:16:00,25.0,16.3,30.09,WSW,241,0.0,1.0,69,0.00,,,0.00,WeatherCatV1.10B1784,2013-03-22 05:16:00,
2013-03-22 01:21:00,24.9,16.2,30.09,WSW,241,0.0,0.0,69,0.00,,,0.00,WeatherCatV1.10B1784,2013-03-22 05:21:00,
2013-03-22 01:26:00,24.9,16.2,30.09,WSW,241,0.0,0.0,69,0.00,,,0.00,WeatherCatV1.10B1784,2013-03-22 05:26:00,
2013-03-22 01:31:00,24.8,16.8,30.09,WSW,241,0.0,0.0,71,0.00,,,0.00,WeatherCatV1.10B1784,2013-03-22 05:31:00,
2013-03-22 01:36:00,24.7,17.0,30.09,WSW,240,0.0,0.0,72,0.00,,,0.00,WeatherCatV1.10B1784,2013-03-22 05:36:00,
2013-03-22 01:41:00,24.6,17.2,30.09,WSW,241,0.0,0.0,73,0.00,,,0.00,WeatherCatV1.10B1784,2013-03-22 05:41:00,
2013-03-22 01:46:00,24.3,17.2,30.08,WSW,241,0.0,1.0,74,0.00,,,0.00,WeatherCatV1.10B1784,2013-03-22 05:46:00,
2013-03-22 01:51:00,24.1,17.3,30.09,WSW,241,0.0,0.0,75,0.00,,,0.00,WeatherCatV1.10B1784,2013-03-22 05:51:00,
2013-03-22 01:56:00,24.0,17.9,30.08,WSW,241,0.0,0.0,77,0.00,,,0.00,WeatherCatV1.10B1784,2013-03-22 05:56:00,
2013-03-22 02:00:00,23.9,17.8,30.08,WSW,240,0.0,0.0,77,0.00,,,0.00,WeatherCatV1.10B1784,2013-03-22 06:00:00,
2013-03-22 02:01:00,23.8,18.3,30.08,WSW,241,0.0,0.0,79,0.00,,,0.00,WeatherCatV1.10B1784,2013-03-22 06:01:00,
2013-03-22 02:05:00,23.5,18.5,30.08,WSW,240,0.0,0.0,81,0.00,,,0.00,WeatherCatV1.10B1784,2013-03-22 06:05:00,
2013-03-22 02:10:00,23.4,18.7,30.08,WSW,241,0.0,0.0,82,0.00,,,0.00,WeatherCatV1.10B1784,2013-03-22 06:10:00,
2013-03-22 02:15:00,23.4,18.4,30.08,WSW,251,0.0,1.0,81,0.00,,,0.00,WeatherCatV1.10B1784,2013-03-22 06:15:00,
2013-03-22 02:20:00,23.2,18.3,30.08,West,278,0.0,0.0,81,0.00,,,0.00,WeatherCatV1.10B1784,2013-03-22 06:20:00,
2013-03-22 02:25:00,23.1,18.4,30.09,WNW,287,0.0,1.0,82,0.00,,,0.00,WeatherCatV1.10B1784,2013-03-22 06:25:00,
2013-03-22 02:30:00,23.1,18.4,30.08,WNW,288,0.0,0.0,82,0.00,,,0.00,WeatherCatV1.10B1784,2013-03-22 06:30:00,
2013-03-22 02:35:00,23.0,18.1,30.08,WNW,288,0.0,0.0,81,0.00,,,0.00,WeatherCatV1.10B1784,2013-03-22 06:35:00,
2013-03-22 02:40:00,23.0,18.1,30.08,WNW,288,0.0,1.0,81,0.00,,,0.00,WeatherCatV1.10B1784,2013-03-22 06:40:00,
2013-03-22 02:54:00,22.9,17.7,30.08,WNW,288,0.0,1.0,80,0.00,,,0.00,WeatherCatV1.10B1784,2013-03-22 06:54:00,
2013-03-22 02:55:00,22.9,17.4,30.08,WNW,288,0.0,1.0,79,0.00,,,0.00,WeatherCatV1.10B1784,2013-03-22 06:55:00,
2013-03-22 02:56:00,22.9,17.4,30.08,WNW,288,0.0,0.0,79,0.00,,,0.00,WeatherCatV1.10B1784,2013-03-22 06:56:00,
2013-03-22 03:01:00,22.8,17.9,30.08,WNW,288,0.0,1.0,81,0.00,,,0.00,WeatherCatV1.10B1784,2013-03-22 07:01:00,
2013-03-22 03:06:00,22.6,18.0,30.08,WNW,288,0.0,0.0,82,0.00,,,0.00,WeatherCatV1.10B1784,2013-03-22 07:06:00,
2013-03-22 03:11:00,22.3,17.4,30.09,WNW,288,0.0,0.0,81,0.00,,,0.00,WeatherCatV1.10B1784,2013-03-22 07:11:00,
2013-03-22 03:16:00,22.3,17.1,30.09,WNW,288,0.0,0.0,80,0.00,,,0.00,WeatherCatV1.10B1784,2013-03-22 07:16:00,
2013-03-22 03:21:00,22.0,17.4,30.09,WNW,288,0.0,0.0,82,0.00,,,0.00,WeatherCatV1.10B1784,2013-03-22 07:21:00,
2013-03-22 03:26:00,21.9,17.3,30.09,WNW,288,0.0,0.0,82,0.00,,,0.00,WeatherCatV1.10B1784,2013-03-22 07:26:00,
2013-03-22 03:31:00,21.7,17.1,30.09,WNW,288,0.0,0.0,82,0.00,,,0.00,WeatherCatV1.10B1784,2013-03-22 07:31:00,
2013-03-22 03:36:00,21.7,17.3,30.09,WNW,288,0.0,0.0,83,0.00,,,0.00,WeatherCatV1.10B1784,2013-03-22 07:36:00,
2013-03-22 03:41:00,21.9,17.8,30.09,WNW,288,0.0,0.0,84,0.00,,,0.00,WeatherCatV1.10B1784,2013-03-22 07:41:00,
2013-03-22 03:46:00,21.8,18.0,30.09,WNW,288,0.0,0.0,85,0.00,,,0.00,WeatherCatV1.10B1784,2013-03-22 07:46:00,
2013-03-22 03:51:00,21.5,17.4,30.09,WNW,288,0.0,0.0,84,0.00,,,0.00,WeatherCatV1.10B1784,2013-03-22 07:51:00,
2013-03-22 03:56:00,21.3,17.2,30.09,WNW,288,0.0,1.0,84,0.00,,,0.00,WeatherCatV1.10B1784,2013-03-22 07:56:00,
2013-03-22 04:01:00,21.2,17.1,30.09,WNW,288,0.0,1.0,84,0.00,,,0.00,WeatherCatV1.10B1784,2013-03-22 08:01:00,
2013-03-22 04:06:00,21.2,16.9,30.09,WNW,288,0.0,0.0,83,0.00,,,0.00,WeatherCatV1.10B1784,2013-03-22 08:06:00,
2013-03-22 04:11:00,21.1,16.8,30.09,WNW,288,0.0,1.0,83,0.00,,,0.00,WeatherCatV1.10B1784,2013-03-22 08:11:00,
2013-03-22 04:16:00,21.2,16.6,30.09,WNW,288,0.0,0.0,82,0.00,,,0.00,WeatherCatV1.10B1784,2013-03-22 08:16:00,
2013-03-22 04:17:00,21.2,16.3,30.09,WNW,288,0.0,0.0,81,0.00,,,0.00,WeatherCatV1.10B1784,2013-03-22 08:17:00,
2013-03-22 04:21:00,21.2,16.6,30.09,WNW,288,0.0,0.0,82,0.00,,,0.00,WeatherCatV1.10B1784,2013-03-22 08:21:00,
2013-03-22 04:26:00,21.1,16.8,30.09,WNW,288,0.0,0.0,83,0.00,,,0.00,WeatherCatV1.10B1784,2013-03-22 08:26:00,
2013-03-22 04:31:00,20.9,16.8,30.09,WNW,288,0.0,0.0,84,0.00,,,0.00,WeatherCatV1.10B1784,2013-03-22 08:31:00,
2013-03-22 04:36:00,20.9,16.8,30.09,WNW,288,0.0,0.0,84,0.00,,,0.00,WeatherCatV1.10B1784,2013-03-22 08:36:00,
2013-03-22 04:41:00,20.9,17.1,30.09,WNW,288,0.0,0.0,85,0.00,,,0.00,WeatherCatV1.10B1784,2013-03-22 08:41:00,
2013-03-22 04:46:00,20.7,16.9,30.09,WNW,288,0.0,0.0,85,0.00,,,0.00,WeatherCatV1.10B1784,2013-03-22 08:46:00,
2013-03-22 04:51:00,20.8,17.0,30.09,WNW,288,0.0,0.0,85,0.00,,,0.00,WeatherCatV1.10B1784,2013-03-22 08:51:00,
2013-03-22 04:56:00,20.4,16.4,30.09,WNW,288,0.0,0.0,84,0.00,,,0.00,WeatherCatV1.10B1784,2013-03-22 08:56:00,
2013-03-22 05:01:00,20.2,16.2,30.09,WNW,289,0.0,0.0,84,0.00,,,0.00,WeatherCatV1.10B1784,2013-03-22 09:01:00,
2013-03-22 05:06:00,20.6,16.8,30.09,WNW,289,0.0,0.0,85,0.00,,,0.00,WeatherCatV1.10B1784,2013-03-22 09:06:00,
2013-03-22 05:11:00,20.8,17.0,30.09,WNW,289,0.0,0.0,85,0.00,,,0.00,WeatherCatV1.10B1784,2013-03-22 09:11:00,
2013-03-22 05:16:00,20.8,17.0,30.09,WNW,289,0.0,1.0,85,0.00,,,0.00,WeatherCatV1.10B1784,2013-03-22 09:16:00,
2013-03-22 05:21:00,20.4,16.6,30.09,WNW,289,0.0,0.0,85,0.00,,,0.00,WeatherCatV1.10B1784,2013-03-22 09:21:00,
2013-03-22 05:26:00,20.1,16.3,30.09,WNW,288,0.0,0.0,85,0.00,,,0.00,WeatherCatV1.10B1784,2013-03-22 09:26:00,
2013-03-22 05:31:00,19.8,16.3,30.09,WNW,288,0.0,0.0,86,0.00,,,0.00,WeatherCatV1.10B1784,2013-03-22 09:31:00,
2013-03-22 05:36:00,19.8,16.3,30.10,WNW,288,0.0,0.0,86,0.00,,,0.00,WeatherCatV1.10B1784,2013-03-22 09:36:00,
2013-03-22 05:41:00,20.0,16.8,30.10,WNW,288,0.0,0.0,87,0.00,,,0.00,WeatherCatV1.10B1784,2013-03-22 09:41:00,
2013-03-22 05:46:00,20.2,16.7,30.10,WNW,288,0.0,0.0,86,0.00,,,0.00,WeatherCatV1.10B1784,2013-03-22 09:46:00,
2013-03-22 05:51:00,20.3,16.8,30.09,WNW,288,0.0,0.0,86,0.00,,,0.00,WeatherCatV1.10B1784,2013-03-22 09:51:00,
2013-03-22 05:56:00,20.4,17.2,30.09,WNW,288,0.0,0.0,87,0.00,,,0.00,WeatherCatV1.10B1784,2013-03-22 09:56:00,
2013-03-22 06:01:00,20.4,16.9,30.10,WNW,288,0.0,1.0,86,0.00,,,0.00,WeatherCatV1.10B1784,2013-03-22 10:01:00,
2013-03-22 06:06:00,20.4,17.2,30.10,WNW,288,0.0,1.0,87,0.00,,,0.00,WeatherCatV1.10B1784,2013-03-22 10:06:00,
2013-03-22 06:11:00,20.5,17.3,30.10,WNW,288,0.0,0.0,87,0.00,,,0.00,WeatherCatV1.10B1784,2013-03-22 10:11:00,
2013-03-22 06:16:00,20.6,17.4,30.10,WNW,288,0.0,0.0,87,0.00,,,0.00,WeatherCatV1.10B1784,2013-03-22 10:16:00,
2013-03-22 06:21:00,20.7,17.5,30.10,WNW,288,0.0,1.0,87,0.00,,,0.00,WeatherCatV1.10B1784,2013-03-22 10:21:00,
2013-03-22 06:26:00,20.6,17.4,30.10,WNW,288,0.0,0.0,87,0.00,,,0.00,WeatherCatV1.10B1784,2013-03-22 10:26:00,
2013-03-22 06:31:00,20.5,17.5,30.10,WNW,288,0.0,0.0,88,0.00,,,0.00,WeatherCatV1.10B1784,2013-03-22 10:31:00,
2013-03-22 06:36:00,20.5,17.5,30.11,WNW,288,0.0,1.0,88,0.00,,,0.00,WeatherCatV1.10B1784,2013-03-22 10:36:00,
2013-03-22 06:41:00,20.1,16.9,30.11,WNW,288,0.0,0.0,87,0.00,,,0.00,WeatherCatV1.10B1784,2013-03-22 10:41:00,
2013-03-22 06:46:00,20.0,17.0,30.10,WNW,288,0.0,1.0,88,0.00,,,0.00,WeatherCatV1.10B1784,2013-03-22 10:46:00,
2013-03-22 06:51:00,20.0,17.0,30.11,WNW,288,0.0,1.0,88,0.00,,,0.00,WeatherCatV1.10B1784,2013-03-22 10:51:00,
2013-03-22 06:56:00,20.0,17.0,30.11,WNW,288,0.0,0.0,88,0.00,,,0.00,WeatherCatV1.10B1784,2013-03-22 10:56:00,
2013-03-22 07:01:00,19.8,16.8,30.11,WNW,288,0.0,0.0,88,0.00,,,0.00,WeatherCatV1.10B1784,2013-03-22 11:01:00,
2013-03-22 07:06:00,19.8,16.8,30.11,WNW,289,0.0,0.0,88,0.00,,,0.00,WeatherCatV1.10B1784,2013-03-22 11:06:00,
2013-03-22 07:11:00,19.7,16.7,30.11,WNW,289,0.0,1.0,88,0.00,,,0.00,WeatherCatV1.10B1784,2013-03-22 11:11:00,
2013-03-22 07:16:00,19.7,16.7,30.11,NW,319,0.0,1.0,88,0.00,,,0.00,WeatherCatV1.10B1784,2013-03-22 11:16:00,
2013-03-22 07:21:00,19.5,16.3,30.11,NW,319,0.0,0.0,87,0.00,,,0.00,WeatherCatV1.10B1784,2013-03-22 11:21:00,
2013-03-22 07:26:00,19.2,16.2,30.11,NW,319,0.0,0.0,88,0.00,,,0.00,WeatherCatV1.10B1784,2013-03-22 11:26:00,
2013-03-22 07:31:00,19.4,16.7,30.11,NW,319,0.0,0.0,89,0.00,,,0.00,WeatherCatV1.10B1784,2013-03-22 11:31:00,
2013-03-22 07:36:00,19.2,16.5,30.11,NW,319,0.0,0.0,89,0.00,,,0.00,WeatherCatV1.10B1784,2013-03-22 11:36:00,
2013-03-22 07:41:00,18.9,15.9,30.11,NW,318,0.0,0.0,88,0.00,,,0.00,WeatherCatV1.10B1784,2013-03-22 11:41:00,
2013-03-22 07:46:00,18.8,16.1,30.12,NW,318,0.0,0.0,89,0.00,,,0.00,WeatherCatV1.10B1784,2013-03-22 11:46:00,
2013-03-22 07:51:00,18.8,15.8,30.12,NW,318,0.0,0.0,88,0.00,,,0.00,WeatherCatV1.10B1784,2013-03-22 11:51:00,
2013-03-22 07:56:00,18.9,15.9,30.12,NW,318,0.0,0.0,88,0.00,,,0.00,WeatherCatV1.10B1784,2013-03-22 11:56:00,
2013-03-22 08:01:00,19.4,16.4,30.12,NW,318,0.0,0.0,88,0.00,,,0.00,WeatherCatV1.10B1784,2013-03-22 12:01:00,
2013-03-22 08:06:00,20.0,17.0,30.13,NW,319,0.0,0.0,88,0.00,,,0.00,WeatherCatV1.10B1784,2013-03-22 12:06:00,
2013-03-22 08:11:00,20.3,17.1,30.13,NW,318,0.0,0.0,87,0.00,,,0.00,WeatherCatV1.10B1784,2013-03-22 12:11:00,
2013-03-22 08:16:00,20.7,17.5,30.13,NW,318,0.0,0.0,87,0.00,,,0.00,WeatherCatV1.10B1784,2013-03-22 12:16:00,
2013-03-22 08:21:00,21.3,18.0,30.13,NW,319,0.0,0.0,87,0.00,,,0.00,WeatherCatV1.10B1784,2013-03-22 12:21:00,
2013-03-22 08:26:00,21.8,18.3,30.13,NW,319,0.0,0.0,86,0.00,,,0.00,WeatherCatV1.10B1784,2013-03-22 12:26:00,
2013-03-22 08:31:00,22.1,18.6,30.13,NW,318,0.0,0.0,86,0.00,,,0.00,WeatherCatV1.10B1784,2013-03-22 12:31:00,
2013-03-22 08:36:00,22.7,18.9,30.13,NW,319,0.0,0.0,85,0.00,,,0.00,WeatherCatV1.10B1784,2013-03-22 12:36:00,
2013-03-22 08:41:00,23.3,19.5,30.13,NNE,28,0.0,1.0,85,0.00,,,0.00,WeatherCatV1.10B1784,2013-03-22 12:41:00,
2013-03-22 08:46:00,24.4,20.3,30.13,NNE,28,0.0,1.0,84,0.00,,,0.00,WeatherCatV1.10B1784,2013-03-22 12:46:00,
2013-03-22 08:51:00,25.9,20.6,30.13,NNE,29,0.0,1.0,80,0.00,,,0.00,WeatherCatV1.10B1784,2013-03-22 12:51:00,
2013-03-22 08:56:00,27.3,21.1,30.13,NNE,30,0.0,1.0,77,0.00,,,0.00,WeatherCatV1.10B1784,2013-03-22 12:56:00,
2013-03-22 09:01:00,28.6,21.1,30.13,East,79,0.0,1.0,73,0.00,,,0.00,WeatherCatV1.10B1784,2013-03-22 13:01:00,
2013-03-22 09:06:00,29.2,20.0,30.13,East,83,0.0,1.0,68,0.00,,,0.00,WeatherCatV1.10B1784,2013-03-22 13:06:00,
2013-03-22 09:11:00,29.9,20.3,30.13,East,84,0.0,1.0,67,0.00,,,0.00,WeatherCatV1.10B1784,2013-03-22 13:11:00,
2013-03-22 09:16:00,30.2,18.8,30.13,ESE,115,0.0,1.0,62,0.00,,,0.00,WeatherCatV1.10B1784,2013-03-22 13:16:00,
2013-03-22 09:21:00,30.4,18.6,30.13,SE,143,0.0,1.0,61,0.00,,,0.00,WeatherCatV1.10B1784,2013-03-22 13:21:00,
2013-03-22 09:26:00,31.4,18.8,30.13,SE,139,1.0,1.0,59,0.00,,,0.00,WeatherCatV1.10B1784,2013-03-22 13:26:00,
2013-03-22 09:31:00,31.8,18.3,30.13,ESE,121,0.0,1.0,57,0.00,,,0.00,WeatherCatV1.10B1784,2013-03-22 13:31:00,
2013-03-22 09:36:00,32.9,19.4,30.13,ESE,121,0.0,0.0,57,0.00,,,0.00,WeatherCatV1.10B1784,2013-03-22 13:36:00,
2013-03-22 09:41:00,33.3,17.1,30.13,WSW,249,0.0,1.0,51,0.00,,,0.00,WeatherCatV1.10B1784,2013-03-22 13:41:00,
2013-03-22 09:46:00,34.0,17.3,30.13,SE,130,1.0,1.0,50,0.00,,,0.00,WeatherCatV1.10B1784,2013-03-22 13:46:00,
2013-03-22 09:51:00,34.5,18.7,30.13,SW,216,0.0,0.0,52,0.00,,,0.00,WeatherCatV1.10B1784,2013-03-22 13:51:00,
2013-03-22 09:56:00,34.6,18.4,30.13,WSW,247,1.0,3.0,51,0.00,,,0.00,WeatherCatV1.10B1784,2013-03-22 13:56:00,
2013-03-22 10:01:00,34.7,18.0,30.13,SW,231,1.0,3.0,50,0.00,,,0.00,WeatherCatV1.10B1784,2013-03-22 14:01:00,
2013-03-22 10:06:00,34.1,17.4,30.14,SSE,149,1.0,5.0,50,0.00,,,0.00,WeatherCatV1.10B1784,2013-03-22 14:06:00,
2013-03-22 10:11:00,33.9,18.6,30.14,SSE,159,3.0,4.0,53,0.00,,,0.00,WeatherCatV1.10B1784,2013-03-22 14:11:00,
2013-03-22 10:16:00,34.2,18.4,30.14,SSE,158,2.0,2.0,52,0.00,,,0.00,WeatherCatV1.10B1784,2013-03-22 14:16:00,
2013-03-22 10:21:00,34.5,18.7,30.14,West,262,2.0,3.0,52,0.00,,,0.00,WeatherCatV1.10B1784,2013-03-22 14:21:00,
2013-03-22 10:26:00,34.7,18.0,30.14,WSW,247,3.0,3.0,50,0.00,,,0.00,WeatherCatV1.10B1784,2013-03-22 14:26:00,
2013-03-22 10:31:00,35.0,17.8,30.14,SE,124,1.0,2.0,49,0.00,,,0.00,WeatherCatV1.10B1784,2013-03-22 14:31:00,
2013-03-22 10:36:00,34.8,16.2,30.13,West,269,1.0,4.0,46,0.00,,,0.00,WeatherCatV1.10B1784,2013-03-22 14:36:00,
2013-03-22 10:41:00,34.5,15.9,30.14,SE,142,3.0,3.0,46,0.00,,,0.00,WeatherCatV1.10B1784,2013-03-22 14:41:00,
2013-03-22 10:46:00,34.6,15.5,30.13,SSE,152,1.0,4.0,45,0.00,,,0.00,WeatherCatV1.10B1784,2013-03-22 14:46:00,
2013-03-22 10:51:00,35.0,15.3,30.13,ENE,57,2.0,5.0,44,0.00,,,0.00,WeatherCatV1.10B1784,2013-03-22 14:51:00,
2013-03-22 10:56:00,35.0,15.3,30.13,WSW,242,2.0,3.0,44,0.00,,,0.00,WeatherCatV1.10B1784,2013-03-22 14:56:00,
2013-03-22 11:01:00,35.6,15.9,30.13,SE,134,1.0,5.0,44,0.00,,,0.00,WeatherCatV1.10B1784,2013-03-22 15:01:00,
2013-03-22 11:06:00,35.9,16.1,30.13,South,176,4.0,6.0,44,0.00,,,0.00,WeatherCatV1.10B1784,2013-03-22 15:06:00,
2013-03-22 11:11:00,36.3,16.0,30.13,NE,44,0.0,2.0,43,0.00,,,0.00,WeatherCatV1.10B1784,2013-03-22 15:11:00,
2013-03-22 11:16:00,37.2,17.3,30.13,NNW,330,0.0,1.0,44,0.00,,,0.00,WeatherCatV1.10B1784,2013-03-22 15:16:00,
2013-03-22 11:21:00,37.4,15.3,30.13,South,174,2.0,4.0,40,0.00,,,0.00,WeatherCatV1.10B1784,2013-03-22 15:21:00,
2013-03-22 11:26:00,36.7,15.2,30.13,South,181,0.0,5.0,41,0.00,,,0.00,WeatherCatV1.10B1784,2013-03-22 15:26:00,
2013-03-22 11:31:00,36.7,15.2,30.13,South,172,5.0,5.0,41,0.00,,,0.00,WeatherCatV1.10B1784,2013-03-22 15:31:00,
2013-03-22 11:36:00,37.1,15.6,30.13,SW,225,5.0,5.0,41,0.00,,,0.00,WeatherCatV1.10B1784,2013-03-22 15:36:00,
2013-03-22 11:41:00,37.3,16.9,30.13,West,271,1.0,3.0,43,0.00,,,0.00,WeatherCatV1.10B1784,2013-03-22 15:41:00,
2013-03-22 11:46:00,36.6,15.2,30.13,NE,54,0.0,4.0,41,0.00,,,0.00,WeatherCatV1.10B1784,2013-03-22 15:46:00,
2013-03-22 11:51:00,36.6,16.2,30.13,WSW,250,2.0,2.0,43,0.00,,,0.00,WeatherCatV1.10B1784,2013-03-22 15:51:00,
2013-03-22 11:56:00,36.6,16.2,30.13,WSW,255,1.0,4.0,43,0.00,,,0.00,WeatherCatV1.10B1784,2013-03-22 15:56:00,
2013-03-22 12:01:00,36.4,15.5,30.13,SW,231,2.0,6.0,42,0.00,,,0.00,WeatherCatV1.10B1784,2013-03-22 16:01:00,
2013-03-22 12:06:00,37.0,15.5,30.13,ESE,113,0.0,2.0,41,0.00,,,0.00,WeatherCatV1.10B1784,2013-03-22 16:06:00,
2013-03-22 12:11:00,37.5,16.0,30.13,West,268,2.0,4.0,41,0.00,,,0.00,WeatherCatV1.10B1784,2013-03-22 16:11:00,
2013-03-22 12:16:00,37.8,16.2,30.12,West,279,3.0,4.0,41,0.00,,,0.00,WeatherCatV1.10B1784,2013-03-22 16:16:00,
2013-03-22 12:17:00,37.8,15.7,30.12,SW,228,1.0,4.0,40,0.00,,,0.00,WeatherCatV1.10B1784,2013-03-22 16:17:00,
2013-03-22 12:21:00,38.7,17.0,30.12,SE,139,2.0,3.0,41,0.00,,,0.00,WeatherCatV1.10B1784,2013-03-22 16:21:00,
2013-03-22 12:26:00,39.2,16.3,30.12,East,86,1.0,3.0,39,0.00,,,0.00,WeatherCatV1.10B1784,2013-03-22 16:26:00,
2013-03-22 12:31:00,39.2,15.1,30.12,East,91,4.0,4.0,37,0.00,,,0.00,WeatherCatV1.10B1784,2013-03-22 16:31:00,
2013-03-22 12:36:00,38.6,15.8,30.12,SW,220,4.0,5.0,39,0.00,,,0.00,WeatherCatV1.10B1784,2013-03-22 16:36:00,
2013-03-22 12:41:00,39.0,15.6,30.12,NW,326,0.0,2.0,38,0.00,,,0.00,WeatherCatV1.10B1784,2013-03-22 16:41:00,
2013-03-22 12:46:00,39.7,16.2,30.12,WNW,283,5.0,5.0,38,0.00,,,0.00,WeatherCatV1.10B1784,2013-03-22 16:46:00,
2013-03-22 12:51:00,39.6,16.1,30.12,WSW,254,0.0,2.0,38,0.00,,,0.00,WeatherCatV1.10B1784,2013-03-22 16:51:00,
2013-03-22 12:58:00,39.9,15.1,30.12,NE,37,0.0,2.0,36,0.00,,,0.00,WeatherCatV1.10B1784,2013-03-22 16:58:00,
2013-03-22 13:01:00,40.3,15.5,30.11,North,0,2.0,3.0,36,0.00,,,0.00,WeatherCatV1.10B1784,2013-03-22 17:01:00,
2013-03-22 13:03:00,40.1,15.9,30.11,WNW,287,3.0,5.0,37,0.00,,,0.00,WeatherCatV1.10B1784,2013-03-22 17:03:00,
2013-03-22 13:08:00,40.0,14.6,30.11,SW,229,3.0,4.0,35,0.00,,,0.00,WeatherCatV1.10B1784,2013-03-22 17:08:00,
2013-03-22 13:11:00,39.9,15.8,30.11,NW,324,3.0,4.0,37,0.00,,,0.00,WeatherCatV1.10B1784,2013-03-22 17:11:00,
2013-03-22 13:16:00,39.9,15.8,30.11,NW,321,1.0,3.0,37,0.00,,,0.00,WeatherCatV1.10B1784,2013-03-22 17:16:00,
2013-03-22 13:21:00,40.8,15.3,30.11,NNW,345,2.0,5.0,35,0.00,,,0.00,WeatherCatV1.10B1784,2013-03-22 17:21:00,
2013-03-22 13:26:00,40.2,14.8,30.10,NE,35,2.0,4.0,35,0.00,,,0.00,WeatherCatV1.10B1784,2013-03-22 17:26:00,
2013-03-22 13:31:00,40.6,15.8,30.10,ESE,103,3.0,3.0,36,0.00,,,0.00,WeatherCatV1.10B1784,2013-03-22 17:31:00,
2013-03-22 13:36:00,40.7,15.2,30.10,ENE,69,0.0,7.0,35,0.00,,,0.00,WeatherCatV1.10B1784,2013-03-22 17:36:00,
2013-03-22 13:41:00,41.4,15.8,30.10,NE,45,2.0,4.0,35,0.00,,,0.00,WeatherCatV1.10B1784,2013-03-22 17:41:00,
2013-03-22 13:46:00,41.8,16.2,30.10,NW,323,2.0,5.0,35,0.00,,,0.00,WeatherCatV1.10B1784,2013-03-22 17:46:00,
2013-03-22 13:51:00,42.8,16.4,30.10,SSW,198,0.0,2.0,34,0.00,,,0.00,WeatherCatV1.10B1784,2013-03-22 17:51:00,
2013-03-22 13:56:00,43.6,16.4,30.09,SSE,158,0.0,1.0,33,0.00,,,0.00,WeatherCatV1.10B1784,2013-03-22 17:56:00,
2013-03-22 14:01:00,43.5,16.3,30.09,WSW,237,5.0,6.0,33,0.00,,,0.00,WeatherCatV1.10B1784,2013-03-22 18:01:00,
2013-03-22 14:06:00,41.4,15.2,30.09,SSW,212,4.0,11.0,34,0.00,,,0.00,WeatherCatV1.10B1784,2013-03-22 18:06:00,
2013-03-22 14:11:00,41.1,14.9,30.09,South,184,5.0,9.0,34,0.00,,,0.00,WeatherCatV1.10B1784,2013-03-22 18:11:00,
2013-03-22 14:16:00,40.9,14.0,30.09,SSE,149,0.0,7.0,33,0.00,,,0.00,WeatherCatV1.10B1784,2013-03-22 18:16:00,
2013-03-22 14:20:00,40.6,16.4,30.11,NNW,340,2.0,3.0,37,0.00,,,0.00,WeatherCatV1.10B1784,2013-03-22 18:20:00,
2013-03-22 14:21:00,40.5,14.4,30.09,East,98,6.0,9.0,34,0.00,,,0.00,WeatherCatV1.10B1784,2013-03-22 18:21:00,
2013-03-22 14:25:00,40.4,15.6,30.10,North,9,2.0,5.0,36,0.00,,,0.00,WeatherCatV1.10B1784,2013-03-22 18:25:00,
2013-03-22 14:30:00,40.2,14.8,30.10,North,0,2.0,2.0,35,0.00,,,0.00,WeatherCatV1.10B1784,2013-03-22 18:30:00,
2013-03-22 14:35:00,40.6,15.8,30.10,ENE,58,1.0,4.0,36,0.00,,,0.00,WeatherCatV1.10B1784,2013-03-22 18:35:00,
2013-03-22 14:40:00,41.4,16.5,30.10,NE,44,1.0,4.0,36,0.00,,,0.00,WeatherCatV1.10B1784,2013-03-22 18:40:00,
2013-03-22 14:45:00,41.5,16.6,30.10,North,3,1.0,2.0,36,0.00,,,0.00,WeatherCatV1.10B1784,2013-03-22 18:45:00,
2013-03-22 14:50:00,42.3,16.6,30.10,NW,316,1.0,3.0,35,0.00,,,0.00,WeatherCatV1.10B1784,2013-03-22 18:50:00,
2013-03-22 14:55:00,43.2,16.1,30.09,West,262,1.0,5.0,33,0.00,,,0.00,WeatherCatV1.10B1784,2013-03-22 18:55:00,
2013-03-22 15:00:00,43.8,15.9,30.09,WSW,251,1.0,2.0,32,0.00,,,0.00,WeatherCatV1.10B1784,2013-03-22 19:00:00,
2013-03-22 15:05:00,41.9,15.6,30.09,SSE,160,3.0,9.0,34,0.00,,,0.00,WeatherCatV1.10B1784,2013-03-22 19:05:00,
2013-03-22 15:10:00,41.2,15.0,30.09,SSE,158,4.0,8.0,34,0.00,,,0.00,WeatherCatV1.10B1784,2013-03-22 19:10:00,
2013-03-22 15:15:00,40.8,13.9,30.09,SE,140,5.0,7.0,33,0.00,,,0.00,WeatherCatV1.10B1784,2013-03-22 19:15:00,
2013-03-22 15:20:00,40.8,13.9,30.09,SE,133,5.0,8.0,33,0.00,,,0.00,WeatherCatV1.10B1784,2013-03-22 19:20:00,
2013-03-22 15:25:00,40.4,14.9,30.08,ESE,121,5.0,7.0,35,0.00,,,0.00,WeatherCatV1.10B1784,2013-03-22 19:25:00,
2013-03-22 15:30:00,40.8,15.3,30.08,ESE,109,5.0,7.0,35,0.00,,,0.00,WeatherCatV1.10B1784,2013-03-22 19:30:00,
2013-03-22 15:35:00,41.6,14.6,30.08,SSE,147,4.0,6.0,33,0.00,,,0.00,WeatherCatV1.10B1784,2013-03-22 19:35:00,
2013-03-22 15:40:00,41.9,15.6,30.08,SE,140,4.0,6.0,34,0.00,,,0.00,WeatherCatV1.10B1784,2013-03-22 19:40:00,
2013-03-22 15:45:00,42.1,15.8,30.08,SE,135,3.0,7.0,34,0.00,,,0.00,WeatherCatV1.10B1784,2013-03-22 19:45:00,
2013-03-22 15:55:00,42.7,15.6,30.08,SSE,167,3.0,6.0,33,0.00,,,0.00,WeatherCatV1.10B1784,2013-03-22 19:55:00,
2013-03-22 15:56:00,43.6,17.1,30.04,SSW,192,6.0,7.0,34,0.00,,,0.00,WeatherCatV1.10B1784,2013-03-22 19:56:00,
2013-03-22 16:01:00,43.0,15.2,30.04,East,93,7.0,11.0,32,0.00,,,0.00,WeatherCatV1.10B1784,2013-03-22 20:01:00,
2013-03-22 16:06:00,43.7,15.8,30.04,East,100,4.0,8.0,32,0.00,,,0.00,WeatherCatV1.10B1784,2013-03-22 20:06:00,
2013-03-22 16:11:00,44.1,16.9,30.04,SE,124,1.0,3.0,33,0.00,,,0.00,WeatherCatV1.10B1784,2013-03-22 20:11:00,
2013-03-22 16:16:00,43.8,15.9,30.03,East,91,5.0,5.0,32,0.00,,,0.00,WeatherCatV1.10B1784,2013-03-22 20:16:00,
2013-03-22 16:21:00,43.6,16.4,30.03,SE,125,9.0,9.0,33,0.00,,,0.00,WeatherCatV1.10B1784,2013-03-22 20:21:00,
2013-03-22 16:26:00,43.8,17.3,30.03,West,265,0.0,4.0,34,0.00,,,0.00,WeatherCatV1.10B1784,2013-03-22 20:26:00,
2013-03-22 16:31:00,44.9,16.8,30.03,East,91,2.0,3.0,32,0.00,,,0.00,WeatherCatV1.10B1784,2013-03-22 20:31:00,
2013-03-22 16:36:00,44.9,16.8,30.03,East,79,1.0,5.0,32,0.00,,,0.00,WeatherCatV1.10B1784,2013-03-22 20:36:00,
2013-03-22 16:41:00,44.9,17.6,30.03,ESE,116,5.0,5.0,33,0.00,,,0.00,WeatherCatV1.10B1784,2013-03-22 20:41:00,
2013-03-22 16:46:00,45.2,17.1,30.03,SSW,210,3.0,8.0,32,0.00,,,0.00,WeatherCatV1.10B1784,2013-03-22 20:46:00,
2013-03-22 16:51:00,45.5,16.6,30.03,ESE,120,2.0,6.0,31,0.00,,,0.00,WeatherCatV1.10B1784,2013-03-22 20:51:00,
2013-03-22 16:56:00,45.7,17.5,30.03,West,265,0.0,2.0,32,0.00,,,0.00,WeatherCatV1.10B1784,2013-03-22 20:56:00,
2013-03-22 17:01:00,45.2,16.4,30.03,South,184,0.0,1.0,31,0.00,,,0.00,WeatherCatV1.10B1784,2013-03-22 21:01:00,
2013-03-22 17:06:00,46.0,17.1,30.03,SSE,150,1.0,6.0,31,0.00,,,0.00,WeatherCatV1.10B1784,2013-03-22 21:06:00,
2013-03-22 17:11:00,45.7,16.1,30.03,East,96,2.0,3.0,30,0.00,,,0.00,WeatherCatV1.10B1784,2013-03-22 21:11:00,
2013-03-22 17:16:00,45.5,16.6,30.03,West,269,3.0,7.0,31,0.00,,,0.00,WeatherCatV1.10B1784,2013-03-22 21:16:00,
2013-03-22 17:21:00,45.6,16.7,30.03,NW,314,1.0,1.0,31,0.00,,,0.00,WeatherCatV1.10B1784,2013-03-22 21:21:00,
2013-03-22 17:26:00,46.0,17.1,30.03,ENE,65,2.0,4.0,31,0.00,,,0.00,WeatherCatV1.10B1784,2013-03-22 21:26:00,
2013-03-22 17:31:00,45.6,16.7,30.03,SSE,150,5.0,10.0,31,0.00,,,0.00,WeatherCatV1.10B1784,2013-03-22 21:31:00,
2013-03-22 17:36:00,45.5,16.6,30.03,ESE,114,3.0,8.0,31,0.00,,,0.00,WeatherCatV1.10B1784,2013-03-22 21:36:00,
2013-03-22 17:41:00,45.3,17.2,30.03,East,96,5.0,7.0,32,0.00,,,0.00,WeatherCatV1.10B1784,2013-03-22 21:41:00,
2013-03-22 17:46:00,45.5,17.4,30.03,NE,34,0.0,2.0,32,0.00,,,0.00,WeatherCatV1.10B1784,2013-03-22 21:46:00,
2013-03-22 17:51:00,45.9,17.7,30.03,SSW,210,5.0,5.0,32,0.00,,,0.00,WeatherCatV1.10B1784,2013-03-22 21:51:00,
2013-03-22 17:56:00,46.0,17.1,30.03,SSE,149,5.0,7.0,31,0.00,,,0.00,WeatherCatV1.10B1784,2013-03-22 21:56:00,
2013-03-22 18:01:00,46.1,17.2,30.03,WNW,297,1.0,2.0,31,0.00,,,0.00,WeatherCatV1.10B1784,2013-03-22 22:01:00,
2013-03-22 18:06:00,46.2,17.3,30.03,SE,141,3.0,9.0,31,0.00,,,0.00,WeatherCatV1.10B1784,2013-03-22 22:06:00,
2013-03-22 18:11:00,45.7,17.5,30.03,West,269,0.0,3.0,32,0.00,,,0.00,WeatherCatV1.10B1784,2013-03-22 22:11:00,
2013-03-22 18:16:00,46.6,17.6,30.03,SSE,166,2.0,4.0,31,0.00,,,0.00,WeatherCatV1.10B1784,2013-03-22 22:16:00,
2013-03-22 18:21:00,46.5,17.5,30.03,SW,225,1.0,1.0,31,0.00,,,0.00,WeatherCatV1.10B1784,2013-03-22 22:21:00,
2013-03-22 18:26:00,46.1,17.2,30.03,WSW,237,0.0,6.0,31,0.00,,,0.00,WeatherCatV1.10B1784,2013-03-22 22:26:00,
2013-03-22 18:31:00,45.9,17.0,30.03,East,94,4.0,5.0,31,0.00,,,0.00,WeatherCatV1.10B1784,2013-03-22 22:31:00,
2013-03-22 18:36:00,45.1,17.0,30.04,East,90,4.0,8.0,32,0.00,,,0.00,WeatherCatV1.10B1784,2013-03-22 22:36:00,
2013-03-22 18:41:00,45.0,16.9,30.04,SSE,161,5.0,6.0,32,0.00,,,0.00,WeatherCatV1.10B1784,2013-03-22 22:41:00,
2013-03-22 18:46:00,45.4,16.6,30.04,South,173,2.0,7.0,31,0.00,,,0.00,WeatherCatV1.10B1784,2013-03-22 22:46:00,
2013-03-22 18:51:00,46.0,17.1,30.04,SE,144,0.0,2.0,31,0.00,,,0.00,WeatherCatV1.10B1784,2013-03-22 22:51:00,
2013-03-22 18:56:00,45.4,17.3,30.04,South,169,5.0,9.0,32,0.00,,,0.00,WeatherCatV1.10B1784,2013-03-22 22:56:00,
2013-03-22 19:01:00,45.3,17.2,30.04,WNW,282,1.0,6.0,32,0.00,,,0.00,WeatherCatV1.10B1784,2013-03-22 23:01:00,
2013-03-22 19:06:00,45.6,17.5,30.05,South,170,1.0,6.0,32,0.00,,,0.00,WeatherCatV1.10B1784,2013-03-22 23:06:00,
2013-03-22 19:11:00,45.2,17.1,30.05,South,185,6.0,7.0,32,0.00,,,0.00,WeatherCatV1.10B1784,2013-03-22 23:11:00,
2013-03-22 19:16:00,44.7,16.7,30.05,ESE,122,8.0,8.0,32,0.00,,,0.00,WeatherCatV1.10B1784,2013-03-22 23:16:00,
2013-03-22 19:21:00,44.1,16.9,30.04,SE,134,4.0,7.0,33,0.00,,,0.00,WeatherCatV1.10B1784,2013-03-22 23:21:00,
2013-03-22 19:26:00,43.9,16.7,30.05,East,94,3.0,4.0,33,0.00,,,0.00,WeatherCatV1.10B1784,2013-03-22 23:26:00,
2013-03-22 19:31:00,43.6,17.1,30.05,SE,124,6.0,8.0,34,0.00,,,0.00,WeatherCatV1.10B1784,2013-03-22 23:31:00,
2013-03-22 19:36:00,43.3,16.8,30.05,SSE,149,1.0,6.0,34,0.00,,,0.00,WeatherCatV1.10B1784,2013-03-22 23:36:00,
2013-03-22 19:41:00,43.1,16.7,30.05,SE,132,4.0,5.0,34,0.00,,,0.00,WeatherCatV1.10B1784,2013-03-22 23:41:00,
2013-03-22 19:46:00,43.1,16.7,30.05,East,86,2.0,6.0,34,0.00,,,0.00,WeatherCatV1.10B1784,2013-03-22 23:46:00,
2013-03-22 19:51:00,42.9,16.5,30.05,ESE,108,3.0,6.0,34,0.00,,,0.00,WeatherCatV1.10B1784,2013-03-22 23:51:00,
2013-03-22 19:56:00,42.8,16.4,30.05,East,96,3.0,6.0,34,0.00,,,0.00,WeatherCatV1.10B1784,2013-03-22 23:56:00,
2013-03-22 20:01:00,42.7,17.0,30.06,SSE,152,4.0,5.0,35,0.00,,,0.00,WeatherCatV1.10B1784,2013-03-23 00:01:00,
2013-03-22 20:06:00,42.6,16.9,30.05,SE,129,3.0,4.0,35,0.00,,,0.00,WeatherCatV1.10B1784,2013-03-23 00:06:00,
2013-03-22 20:11:00,42.5,17.4,30.05,ESE,109,2.0,2.0,36,0.00,,,0.00,WeatherCatV1.10B1784,2013-03-23 00:11:00,
2013-03-22 20:16:00,42.3,17.3,30.06,SE,143,3.0,4.0,36,0.00,,,0.00,WeatherCatV1.10B1784,2013-03-23 00:16:00,
2013-03-22 20:21:00,42.1,17.7,30.06,South,174,0.0,2.0,37,0.00,,,0.00,WeatherCatV1.10B1784,2013-03-23 00:21:00,
2013-03-22 20:26:00,42.1,17.7,30.06,SSW,193,2.0,4.0,37,0.00,,,0.00,WeatherCatV1.10B1784,2013-03-23 00:26:00,
2013-03-22 20:31:00,42.0,17.6,30.06,ESE,122,2.0,2.0,37,0.00,,,0.00,WeatherCatV1.10B1784,2013-03-23 00:31:00,
2013-03-22 20:36:00,42.1,17.7,30.06,SE,126,4.0,5.0,37,0.00,,,0.00,WeatherCatV1.10B1784,2013-03-23 00:36:00,
2013-03-22 20:41:00,42.0,17.6,30.06,ESE,117,3.0,5.0,37,0.00,,,0.00,WeatherCatV1.10B1784,2013-03-23 00:41:00,
2013-03-22 20:46:00,41.9,17.5,30.05,SE,126,2.0,4.0,37,0.00,,,0.00,WeatherCatV1.10B1784,2013-03-23 00:46:00,
2013-03-22 20:51:00,41.8,18.1,30.05,SE,143,2.0,4.0,38,0.00,,,0.00,WeatherCatV1.10B1784,2013-03-23 00:51:00,
2013-03-22 20:56:00,41.7,18.0,30.05,South,170,2.0,3.0,38,0.00,,,0.00,WeatherCatV1.10B1784,2013-03-23 00:56:00,
2013-03-22 21:01:00,41.7,18.0,30.05,ESE,111,4.0,4.0,38,0.00,,,0.00,WeatherCatV1.10B1784,2013-03-23 01:01:00,
2013-03-22 21:06:00,41.8,18.1,30.05,East,88,2.0,4.0,38,0.00,,,0.00,WeatherCatV1.10B1784,2013-03-23 01:06:00,
2013-03-22 21:11:00,41.7,18.6,30.05,North,11,0.0,2.0,39,0.00,,,0.00,WeatherCatV1.10B1784,2013-03-23 01:11:00,
2013-03-22 21:16:00,41.3,18.2,30.05,East,88,1.0,3.0,39,0.00,,,0.00,WeatherCatV1.10B1784,2013-03-23 01:16:00,
2013-03-22 21:21:00,41.1,18.1,30.05,East,82,1.0,2.0,39,0.00,,,0.00,WeatherCatV1.10B1784,2013-03-23 01:21:00,
2013-03-22 21:26:00,40.9,18.5,30.05,East,101,0.0,1.0,40,0.00,,,0.00,WeatherCatV1.10B1784,2013-03-23 01:26:00,
2013-03-22 21:31:00,40.8,18.4,30.05,East,94,1.0,3.0,40,0.00,,,0.00,WeatherCatV1.10B1784,2013-03-23 01:31:00,
2013-03-22 21:36:00,40.8,18.4,30.05,SE,143,2.0,3.0,40,0.00,,,0.00,WeatherCatV1.10B1784,2013-03-23 01:36:00,
2013-03-22 21:41:00,40.9,18.5,30.05,SE,143,1.0,3.0,40,0.00,,,0.00,WeatherCatV1.10B1784,2013-03-23 01:41:00,
2013-03-22 21:46:00,40.8,18.4,30.06,ENE,78,2.0,2.0,40,0.00,,,0.00,WeatherCatV1.10B1784,2013-03-23 01:46:00,
2013-03-22 21:51:00,40.8,18.4,30.06,South,180,1.0,2.0,40,0.00,,,0.00,WeatherCatV1.10B1784,2013-03-23 01:51:00,
2013-03-22 21:56:00,40.7,18.3,30.06,SE,133,1.0,2.0,40,0.00,,,0.00,WeatherCatV1.10B1784,2013-03-23 01:56:00,
2013-03-22 22:01:00,40.8,18.4,30.06,SSE,153,0.0,2.0,40,0.00,,,0.00,WeatherCatV1.10B1784,2013-03-23 02:01:00,
2013-03-22 22:06:00,40.6,19.3,30.06,ESE,113,0.0,1.0,42,0.00,,,0.00,WeatherCatV1.10B1784,2013-03-23 02:06:00,
2013-03-22 22:11:00,40.4,20.2,30.06,SE,133,0.0,0.0,44,0.00,,,0.00,WeatherCatV1.10B1784,2013-03-23 02:11:00,
2013-03-22 22:16:00,39.8,19.7,30.06,SE,133,0.0,0.0,44,0.00,,,0.00,WeatherCatV1.10B1784,2013-03-23 02:16:00,
2013-03-22 22:21:00,39.5,19.9,30.06,SE,132,0.0,1.0,45,0.00,,,0.00,WeatherCatV1.10B1784,2013-03-23 02:21:00,
2013-03-22 22:26:00,39.1,19.0,30.06,ESE,102,0.0,1.0,44,0.00,,,0.00,WeatherCatV1.10B1784,2013-03-23 02:26:00,
2013-03-22 22:31:00,39.0,19.5,30.06,East,96,0.0,1.0,45,0.00,,,0.00,WeatherCatV1.10B1784,2013-03-23 02:31:00,
2013-03-22 22:36:00,38.8,19.3,30.07,East,96,0.0,1.0,45,0.00,,,0.00,WeatherCatV1.10B1784,2013-03-23 02:36:00,
2013-03-22 22:41:00,38.7,19.7,30.07,East,96,0.0,1.0,46,0.00,,,0.00,WeatherCatV1.10B1784,2013-03-23 02:41:00,
2013-03-22 22:46:00,38.8,20.8,30.07,East,96,0.0,0.0,48,0.00,,,0.00,WeatherCatV1.10B1784,2013-03-23 02:46:00,
2013-03-22 22:51:00,38.5,21.0,30.07,East,96,0.0,0.0,49,0.00,,,0.00,WeatherCatV1.10B1784,2013-03-23 02:51:00,
2013-03-22 22:56:00,38.3,20.4,30.07,East,87,0.0,2.0,48,0.00,,,0.00,WeatherCatV1.10B1784,2013-03-23 02:56:00,
2013-03-22 23:01:00,38.5,19.5,30.06,East,98,1.0,3.0,46,0.00,,,0.00,WeatherCatV1.10B1784,2013-03-23 03:01:00,
2013-03-22 23:06:00,38.6,19.6,30.06,East,86,2.0,2.0,46,0.00,,,0.00,WeatherCatV1.10B1784,2013-03-23 03:06:00,
2013-03-22 23:11:00,38.6,19.1,30.06,NNE,30,1.0,4.0,45,0.00,,,0.00,WeatherCatV1.10B1784,2013-03-23 03:11:00,
2013-03-22 23:16:00,38.6,19.1,30.06,East,90,1.0,3.0,45,0.00,,,0.00,WeatherCatV1.10B1784,2013-03-23 03:16:00,
2013-03-22 23:21:00,38.5,19.0,30.06,ENE,74,1.0,2.0,45,0.00,,,0.00,WeatherCatV1.10B1784,2013-03-23 03:21:00,
2013-03-22 23:26:00,38.5,19.0,30.07,East,79,2.0,3.0,45,0.00,,,0.00,WeatherCatV1.10B1784,2013-03-23 03:26:00,
2013-03-22 23:31:00,38.6,19.1,30.06,East,88,3.0,3.0,45,0.00,,,0.00,WeatherCatV1.10B1784,2013-03-23 03:31:00,
2013-03-22 23:36:00,38.7,19.2,30.07,ESE,121,1.0,2.0,45,0.00,,,0.00,WeatherCatV1.10B1784,2013-03-23 03:36:00,
2013-03-22 23:41:00,38.9,19.4,30.06,East,91,1.0,3.0,45,0.00,,,0.00,WeatherCatV1.10B1784,2013-03-23 03:41:00,
2013-03-22 23:46:00,38.9,18.9,30.06,East,83,2.0,3.0,44,0.00,,,0.00,WeatherCatV1.10B1784,2013-03-23 03:46:00,
2013-03-22 23:51:00,38.9,19.4,30.06,East,84,1.0,2.0,45,0.00,,,0.00,WeatherCatV1.10B1784,2013-03-23 03:51:00,
2013-03-22 23:56:00,39.0,19.5,30.07,ESE,122,0.0,1.0,45,0.00,,,0.00,WeatherCatV1.10B1784,2013-03-23 03:56:00,